Weather History for Burbank, CA

Change the Weather History Date:

Thursday, June 6, 2013

  Actual Average Record
Temperature  
Mean Temperature 70 °F 68 °F  
Max Temperature 78 °F 78 °F 99 °F (1973)
Min Temperature 61 °F 57 °F 45 °F (1943)
Degree Days  
Heating Degree Days 0 1  
Month to date heating degree days 0 6  
Since 1 June heating degree days 0 6  
Since 1 July heating degree days 1105 1562  
Cooling Degree Days 5 3  
Month to date cooling degree days 44 18  
Year to date cooling degree days 373 142  
Since 1 June cooling degree days 44 18  
Growing Degree Days 19 (Base 50)    
Moisture  
Dew Point 56 °F    
Average Humidity 66    
Maximum Humidity 84    
Minimum Humidity 48    
Precipitation  
Precipitation 0.00 in 0.01 in 0.29 in (1987)
Month to date precipitation 0.00 0.04  
Year to date precipitation 2.60 12.48  
Since 1 July precipitation 5.40 17.24  
Sea Level Pressure  
Sea Level Pressure 29.89 in    
Wind  
Wind Speed 6 mph (South)    
Max Wind Speed 13 mph    
Max Gust Speed 23 mph    
Visibility 8 miles    
Events      
T = Trace of Precipitation, MM = Missing Value Source: NWS Daily Summary

Daily Weather History Graph

Daily Weather History Graph

Search for Another Location

Airport:

Trip Planner

Search our weather history database for the weather conditions in past years. The results will help you decide how hot, cold, wet, or windy it might be!

Date:

Astronomy

Jun. 06, 2013 Rise Set
Actual Time 5:41 AM PDT 8:03 PM PDT
Civil Twilight 5:12 AM PDT 8:32 PM PDT
Nautical Twilight 4:36 AM PDT 9:07 PM PDT
Astronomical Twilight 3:57 AM PDT 9:46 PM PDT
Moon 4:21 AM PDT (6/6) 6:32 PM PDT (6/6)
Length of Visible Light 15h 19m
Length of Day
14h 21m
Waning Crescent, 3% of the Moon is Illuminated
Jun 6
Waning Crescent
Jun 8
New
Jun 16
First Quarter
Jun 23
Full
Jun 29
Last Quarter

Hourly Weather History & Observations

Time (PDT) Temp. Dew Point Humidity Pressure Visibility Wind Dir Wind Speed Gust Speed Precip Events Conditions
12:53 AM 62.1 °F 55.9 °F 80% 29.90 in 10.0 mi South 3.5 mph - N/A   Clear
1:53 AM 62.1 °F 55.9 °F 80% 29.88 in 10.0 mi Calm Calm - N/A   Clear
2:43 AM 62.6 °F 55.4 °F 77% 29.91 in 10.0 mi SE 4.6 mph - N/A   Partly Cloudy
2:53 AM 62.1 °F 55.9 °F 80% 29.88 in 10.0 mi ESE 8.1 mph - N/A   Scattered Clouds
3:04 AM 62.6 °F 55.4 °F 77% 29.91 in 10.0 mi East 5.8 mph - N/A   Mostly Cloudy
3:48 AM 60.8 °F 55.4 °F 82% 29.91 in 6.0 mi SSE 5.8 mph - N/A   Haze
3:53 AM 61.0 °F 55.9 °F 83% 29.88 in 6.0 mi SSE 6.9 mph - N/A   Haze
4:25 AM 60.8 °F 55.4 °F 82% 29.91 in 7.0 mi Calm Calm - N/A   Overcast
4:36 AM 60.8 °F 55.4 °F 82% 29.91 in 6.0 mi Variable 3.5 mph - N/A   Haze
4:53 AM 61.0 °F 55.9 °F 83% 29.88 in 6.0 mi SE 3.5 mph - N/A   Haze
5:53 AM 61.0 °F 55.9 °F 83% 29.88 in 3.0 mi Calm Calm - N/A   Haze
6:53 AM 61.0 °F 55.9 °F 83% 29.89 in 5.0 mi Calm Calm - N/A   Haze
7:53 AM 62.1 °F 55.9 °F 80% 29.91 in 3.0 mi Calm Calm - N/A   Haze
8:53 AM 63.0 °F 55.9 °F 78% 29.92 in 5.0 mi SSE 6.9 mph - N/A   Haze
9:28 AM 64.4 °F 55.4 °F 73% 29.95 in 6.0 mi South 4.6 mph - N/A   Haze
9:53 AM 66.0 °F 55.9 °F 70% 29.92 in 7.0 mi Calm Calm - N/A   Overcast
10:53 AM 68.0 °F 57.0 °F 68% 29.92 in 5.0 mi Variable 5.8 mph - N/A   Haze
11:18 AM 69.8 °F 57.2 °F 64% 29.94 in 6.0 mi Variable 6.9 mph - N/A   Haze
11:53 AM 72.0 °F 57.0 °F 59% 29.91 in 6.0 mi Variable 3.5 mph - N/A   Haze
12:53 PM 73.9 °F 57.0 °F 55% 29.90 in 10.0 mi SSW 9.2 mph - N/A   Clear
1:53 PM 75.0 °F 57.0 °F 53% 29.88 in 10.0 mi South 10.4 mph - N/A   Clear
2:26 PM 75.2 °F 57.2 °F 53% 29.91 in 6.0 mi SSW 10.4 mph - N/A   Smoke
2:53 PM 78.1 °F 57.9 °F 50% 29.87 in 6.0 mi SSW 11.5 mph - N/A   Smoke
3:53 PM 77.0 °F 57.0 °F 50% 29.85 in 10.0 mi South 10.4 mph - N/A   Smoke
4:53 PM 75.9 °F 57.0 °F 52% 29.83 in 6.0 mi South 10.4 mph - N/A   Smoke
5:53 PM 73.9 °F 57.0 °F 55% 29.83 in 10.0 mi South 11.5 mph - N/A   Clear
6:53 PM 70.0 °F 57.0 °F 63% 29.84 in 10.0 mi South 12.7 mph - N/A   Clear
7:53 PM 66.0 °F 57.0 °F 73% 29.86 in 10.0 mi South 6.9 mph - N/A   Clear
8:53 PM 64.0 °F 55.9 °F 75% 29.87 in 10.0 mi South 5.8 mph - N/A   Clear
9:53 PM 63.0 °F 55.9 °F 78% 29.88 in 10.0 mi South 6.9 mph - N/A   Clear
10:53 PM 62.1 °F 55.9 °F 80% 29.89 in 10.0 mi South 4.6 mph - N/A   Clear
11:04 PM 62.6 °F 55.4 °F 77% 29.92 in 10.0 mi South 4.6 mph - N/A   Scattered Clouds
11:13 PM 62.6 °F 55.4 °F 77% 29.92 in 10.0 mi South 5.8 mph - N/A   Mostly Cloudy
11:53 PM 62.1 °F 55.9 °F 80% 29.89 in 10.0 mi South 4.6 mph - N/A   Overcast